Home   Weather   Nukualofa   Past weeks
Flag for Tonga

Past Weather in Nukualofa, Tonga — Yesterday and Last 2 Weeks

Now
77 °F

Scattered clouds.


Feels Like: 79 °F
Forecast: 76 / 70 °F
Wind: 10 mph from Southeast

Location: Fua'Amotu

Current Time: Jun 20, 2019 at 4:17:31 pm

Latest Report: Jun 20, 2019 at 4:00 pm


Visibility: N/A

Pressure: 29.95 "Hg

Humidity: 74%

Dew Point: 68 °F

Location of NukualofaLocation

Past Weather in Nukualofa — Graph

°F

Nukualofa Temperature Yesterday

Maximum temperature yesterday: 79 °F (at 10:00 am)
Minimum temperature yesterday: 72 °F (at 6:00 am)
Average temperature yesterday: 75 °F

High & Low Weather Summary for the Past Weeks

 TemperatureHumidityPressure
High82 °F (Jun 7, 3:00 pm)100% (Jun 6, 7:00 pm)30.09 "Hg (Jun 6, 7:00 pm)
Low63 °F (Jun 16, 7:00 am)54% (Jun 9, 1:00 pm)29.80 "Hg (Jun 13, 4:00 pm)
Average73 °F86%29.98 "Hg
* Reported Jun 5 3:00 pm — Jun 20 3:00 pm, Nukualofa. Weather by CustomWeather, © 2019

Note: Actual official high and low records may vary slightly from our data, if they occured in-between our weather recording intervals... More about our weather records

Advertising

Nukualofa Weather History for the Previous 24 Hours

Scroll right to see more
 ConditionsComfort  
Time TempWeatherWind HumidityBarometerVisibility
3:00 pm
Thu, Jun 20
75 °FPartly sunny.9 mph83%29.95 "HgN/A
2:00 pm79 °FScattered clouds.8 mph79%29.98 "HgN/A
1:00 pm79 °FPassing clouds.7 mph74%29.98 "HgN/A
12:00 pm77 °FPartly sunny.10 mph79%30.01 "HgN/A
11:00 am77 °FPartly sunny.9 mph79%30.04 "HgN/A
10:00 am75 °FPartly sunny.8 mph83%30.04 "HgN/A
9:00 am73 °FPartly sunny.7 mph89%30.01 "HgN/A
8:00 am73 °FPartly sunny.7 mph89%30.01 "HgN/A
7:00 am73 °FPassing clouds.6 mph94%29.98 "HgN/A
6:00 am73 °FPassing clouds.6 mph89%29.98 "HgN/A
5:00 am72 °FPassing clouds.6 mph94%29.95 "HgN/A
4:00 am72 °FPassing clouds.6 mph94%29.98 "HgN/A
3:00 am72 °FPassing clouds.6 mph94%29.98 "HgN/A
2:00 am72 °FPassing clouds.5 mph94%29.98 "HgN/A
1:00 am73 °FSprinkles. Partly cloudy.5 mph94%30.01 "HgN/A
12:00 am73 °FSprinkles. Passing clouds.6 mph100%30.01 "HgN/A
11:00 pm
Wed, Jun 19
73 °FPassing clouds.7 mph94%30.01 "HgN/A
10:00 pm73 °FPassing clouds.6 mph94%30.01 "HgN/A
9:00 pm73 °FPassing clouds.8 mph94%30.01 "HgN/A
8:00 pm75 °FPartly cloudy.7 mph94%30.01 "HgN/A
7:00 pm75 °FPartly cloudy.5 mph94%29.98 "HgN/A
6:00 pm75 °FDrizzle. Broken clouds.7 mph94%29.98 "HgN/A
5:00 pm77 °FBroken clouds.8 mph89%29.98 "HgN/A
4:00 pm77 °FBroken clouds.7 mph89%29.95 "HgN/A
Weather by CustomWeather, © 2019

See weather overview